Location: Bosdarros
(43.2167°N, 0.3667°W)
Time: 09:33:22
(UTC+00:00)

FENGYUN 1C DEB - Visible Passes

Search period start: 28 October 2021 00:00
Search period end: 07 November 2021 00:00
Orbit: 836 x 967 km, 98.8° (Epoch: 27 October)

Date Brightness Start Highest point End Pass type
(mag) Time Alt. Az. Time Alt. Az. Time Alt. Az.
28 Oct ? 18:08:40 10° SSE 18:14:06 81° WSW 18:19:34 10° NNW visible
29 Oct ? 18:11:51 10° S 18:17:16 76° WSW 18:22:44 10° NNW visible
30 Oct ? 18:15:01 10° S 18:20:25 71° WSW 18:25:53 10° NNW visible
31 Oct ? 18:18:12 10° S 18:23:35 66° WSW 18:29:01 10° NNW visible
01 Nov ? 18:21:24 10° S 18:26:45 62° WSW 18:32:10 10° NNW visible
02 Nov ? 18:24:35 10° S 18:29:55 58° W 18:35:18 10° NNW visible
03 Nov ? 18:27:47 10° S 18:33:05 54° W 18:38:27 10° NNW visible
04 Nov ? 18:31:00 10° S 18:36:14 51° W 18:41:35 10° NNW visible
05 Nov ? 05:20:40 10° ENE 05:22:01 11° E 05:23:22 10° E visible
05 Nov ? 18:34:13 10° S 18:39:24 48° W 18:44:43 10° NNW visible
06 Nov ? 05:23:13 10° ENE 05:25:14 12° E 05:27:16 10° ESE visible
06 Nov ? 18:37:26 10° S 18:42:35 45° W 18:47:51 10° NNW visible
